• In Latvia
  • List of Countries
  • For 7 days
  • Water Temperature
  • Satellite Maps
  • Weather Map
  • Weather Widgets
  • user-avatar
    Login

    Hourly Weather Canberra

    Today, 20 June, Wednesday

    Time Temperature Precipitation Wind Pressure Humidity
    00:00 +6°C° 0 mm 1 mps 716 mmHg 93%
    01:00 +5°C° 0 mm 2 mps 716 mmHg 93%
    02:00 +5°C° 0 mm 2 mps 716 mmHg 93%
    03:00 +5°C° 0 mm 2 mps 716 mmHg 94%
    04:00 +5°C° 0 mm 2 mps 716 mmHg 94%
    05:00 +4°C° 0 mm 2 mps 716 mmHg 95%
    06:00 +4°C° 0 mm 2 mps 716 mmHg 95%
    07:00 +4°C° 0 mm 2 mps 716 mmHg 96%
    08:00 +6°C° 0 mm 2 mps 717 mmHg 90%
    09:00 +7°C° 0 mm 2 mps 717 mmHg 84%
    10:00 +11°C° 0 mm 1 mps 717 mmHg 74%
    11:00 +12°C° 0 mm 1 mps 717 mmHg 70%
    12:00 +12°C° 0 mm 1 mps 717 mmHg 65%
    13:00 +13°C° 0 mm 1 mps 717 mmHg 60%
    14:00 +13°C° 0 mm 1 mps 717 mmHg 61%
    15:00 +13°C° 0 mm 1 mps 716 mmHg 62%
    16:00 +12°C° 0 mm 1 mps 716 mmHg 64%
    17:00 +9°C° 0 mm 0 mps 716 mmHg 72%
    18:00 +7°C° 0 mm 0 mps 716 mmHg 80%
    19:00 +5°C° 0 mm 0 mps 716 mmHg 89%
    20:00 +5°C° 0 mm 0 mps 716 mmHg 89%
    21:00 +5°C° 0 mm 0 mps 716 mmHg 90%
    22:00 +5°C° 0 mm 0 mps 716 mmHg 91%
    23:00 +4°C° 0 mm 0 mps 716 mmHg 91%

    Tomorrow, 21 June, Thursday

    Time Temperature Precipitation Wind Pressure Humidity
    00:00 +5°C° 0 mm 1 mps 716 mmHg 91%
    01:00 +5°C° 0 mm 1 mps 716 mmHg 92%
    02:00 +5°C° 0 mm 1 mps 716 mmHg 92%
    03:00 +5°C° 0 mm 1 mps 716 mmHg 91%
    04:00 +5°C° 0 mm 1 mps 716 mmHg 91%
    05:00 +5°C° 0 mm 1 mps 716 mmHg 90%
    06:00 +4°C° 0 mm 1 mps 716 mmHg 89%
    07:00 +4°C° 0 mm 1 mps 716 mmHg 88%
    08:00 +5°C° 0 mm 0 mps 717 mmHg 79%
    09:00 +8°C° 0 mm 0 mps 717 mmHg 69%
    10:00 +10°C° 0 mm 0 mps 717 mmHg 59%
    11:00 +11°C° 0 mm 0 mps 717 mmHg 52%
    12:00 +14°C° 0 mm 1 mps 717 mmHg 46%
    13:00 +15°C° 0 mm 1 mps 716 mmHg 40%
    14:00 +14°C° 0 mm 1 mps 716 mmHg 43%
    15:00 +14°C° 0 mm 1 mps 716 mmHg 47%
    16:00 +13°C° 0 mm 1 mps 716 mmHg 50%
    17:00 +11°C° 0 mm 1 mps 716 mmHg 60%
    18:00 +8°C° 0 mm 1 mps 716 mmHg 70%
    19:00 +6°C° 0 mm 1 mps 716 mmHg 80%
    20:00 +6°C° 0 mm 1 mps 716 mmHg 81%
    21:00 +5°C° 0 mm 1 mps 716 mmHg 82%
    22:00 +4°C° 0 mm 0 mps 717 mmHg 84%
    23:00 +3°C° 0 mm 0 mps 717 mmHg 83%

    Day after tomorrow, 22 June, Friday

    Time Temperature Precipitation Wind Pressure Humidity
    00:00 +3°C° 0 mm 0 mps 717 mmHg 83%
    01:00 +3°C° 0 mm 0 mps 716 mmHg 83%
    02:00 +3°C° 0 mm 0 mps 716 mmHg 83%
    03:00 +3°C° 0 mm 0 mps 716 mmHg 83%
    04:00 +3°C° 0 mm 1 mps 716 mmHg 83%
    05:00 +3°C° 0 mm 1 mps 716 mmHg 83%
    06:00 +3°C° 0 mm 1 mps 716 mmHg 83%
    07:00 +3°C° 0 mm 1 mps 716 mmHg 83%
    08:00 +5°C° 0 mm 1 mps 717 mmHg 72%
    09:00 +8°C° 0 mm 1 mps 717 mmHg 62%
    10:00 +11°C° 0 mm 1 mps 717 mmHg 52%
    11:00 +12°C° 0 mm 1 mps 717 mmHg 47%
    12:00 +14°C° 0 mm 2 mps 716 mmHg 43%
    13:00 +15°C° 0 mm 2 mps 716 mmHg 38%
    14:00 +14°C° 0 mm 2 mps 715 mmHg 42%
    15:00 +14°C° 0 mm 2 mps 715 mmHg 46%
    16:00 +13°C° 0 mm 2 mps 715 mmHg 50%
    17:00 +10°C° 0 mm 2 mps 715 mmHg 61%
    18:00 +7°C° 0 mm 2 mps 715 mmHg 72%
    19:00 +5°C° 0 mm 2 mps 715 mmHg 83%
    20:00 +5°C° 0 mm 1 mps 715 mmHg 84%
    21:00 +5°C° 0 mm 1 mps 715 mmHg 85%
    22:00 +4°C° 0 mm 1 mps 716 mmHg 86%
    23:00 +4°C° 0 mm 1 mps 715 mmHg 86%

    23 June, Saturday

    Time Temperature Precipitation Wind Pressure Humidity
    00:00 +4°C° 0 mm 1 mps 715 mmHg 85%
    01:00 +3°C° 0 mm 1 mps 715 mmHg 85%
    02:00 +3°C° 0 mm 1 mps 715 mmHg 84%
    03:00 +3°C° 0 mm 1 mps 714 mmHg 84%
    04:00 +3°C° 0 mm 1 mps 714 mmHg 84%
    05:00 +3°C° 0 mm 1 mps 714 mmHg 83%
    06:00 +2°C° 0 mm 1 mps 715 mmHg 83%
    07:00 +1°C° 0 mm 2 mps 715 mmHg 82%
    08:00 +4°C° 0 mm 2 mps 715 mmHg 71%
    09:00 +6°C° 0 mm 2 mps 715 mmHg 60%
    10:00 +9°C° 0 mm 2 mps 716 mmHg 50%
    11:00 +10°C° 0 mm 2 mps 715 mmHg 45%
    12:00 +13°C° 0 mm 2 mps 715 mmHg 40%
    13:00 +13°C° 0 mm 3 mps 714 mmHg 35%
    14:00 +12°C° 0 mm 3 mps 714 mmHg 39%
    15:00 +12°C° 0 mm 2 mps 714 mmHg 43%
    16:00 +12°C° 0 mm 2 mps 714 mmHg 48%
    17:00 +8°C° 0 mm 2 mps 715 mmHg 57%
    18:00 +6°C° 0 mm 2 mps 715 mmHg 67%
    19:00 +4°C° 0 mm 2 mps 715 mmHg 77%
    20:00 +5°C° 0 mm 1 mps 715 mmHg 77%
    21:00 +4°C° 0 mm 1 mps 716 mmHg 78%
    22:00 +4°C° 0 mm 1 mps 716 mmHg 78%
    23:00 +4°C° 0 mm 1 mps 716 mmHg 78%

    24 June, Sunday

    Time Temperature Precipitation Wind Pressure Humidity
    00:00 +3°C° 0 mm 1 mps 716 mmHg 77%
    01:00 +3°C° 0 mm 1 mps 716 mmHg 77%
    02:00 +3°C° 0 mm 1 mps 716 mmHg 78%
    03:00 +3°C° 0 mm 1 mps 716 mmHg 79%
    04:00 +3°C° 0 mm 1 mps 716 mmHg 80%
    05:00 +3°C° 0 mm 1 mps 716 mmHg 81%
    06:00 +3°C° 0 mm 1 mps 716 mmHg 82%
    07:00 +3°C° 0 mm 1 mps 716 mmHg 83%
    08:00 +5°C° 0 mm 1 mps 717 mmHg 74%
    09:00 +8°C° 0 mm 1 mps 717 mmHg 64%
    10:00 +11°C° 0 mm 1 mps 718 mmHg 54%
    11:00 +12°C° 0 mm 1 mps 717 mmHg 51%
    12:00 +13°C° 0 mm 1 mps 717 mmHg 48%
    13:00 +14°C° 0 mm 1 mps 717 mmHg 44%
    14:00 +14°C° 0 mm 1 mps 716 mmHg 48%
    15:00 +13°C° 0 mm 1 mps 716 mmHg 51%
    16:00 +12°C° 0 mm 1 mps 716 mmHg 55%
    17:00 +10°C° 0 mm 1 mps 716 mmHg 63%
    18:00 +8°C° 0 mm 1 mps 716 mmHg 72%
    19:00 +6°C° 0 mm 1 mps 717 mmHg 80%
    20:00 +5°C° 0 mm 1 mps 717 mmHg 83%
    21:00 +5°C° 0 mm 1 mps 717 mmHg 86%
    22:00 +4°C° 0 mm 1 mps 717 mmHg 89%
    23:00 +4°C° 0 mm 1 mps 717 mmHg 91%

    25 June, Monday

    Time Temperature Precipitation Wind Pressure Humidity
    00:00 +4°C° 0 mm 1 mps 717 mmHg 92%
    01:00 +3°C° 0 mm 1 mps 717 mmHg 93%
    02:00 +3°C° 0 mm 1 mps 717 mmHg 94%
    03:00 +3°C° 0 mm 1 mps 717 mmHg 94%
    04:00 +3°C° 0 mm 1 mps 717 mmHg 95%
    05:00 +3°C° 0 mm 1 mps 717 mmHg 95%
    06:00 +2°C° 0 mm 1 mps 718 mmHg 95%
    07:00 +2°C° 0 mm 1 mps 718 mmHg 95%
    08:00 +5°C° 0 mm 1 mps 719 mmHg 85%
    09:00 +7°C° 0 mm 1 mps 719 mmHg 75%
    10:00 +10°C° 0 mm 1 mps 719 mmHg 64%
    11:00 +11°C° 0 mm 1 mps 719 mmHg 58%
    12:00 +12°C° 0 mm 0 mps 719 mmHg 51%
    13:00 +13°C° 0 mm 0 mps 718 mmHg 45%
    14:00 +13°C° 0 mm 0 mps 718 mmHg 47%
    15:00 +12°C° 0 mm 0 mps 718 mmHg 49%
    16:00 +12°C° 0 mm 1 mps 718 mmHg 52%
    17:00 +10°C° 0 mm 1 mps 718 mmHg 60%
    18:00 +7°C° 0 mm 1 mps 718 mmHg 69%
    19:00 +5°C° 0 mm 1 mps 718 mmHg 77%
    20:00 +5°C° 0 mm 1 mps 719 mmHg 79%
    21:00 +4°C° 0 mm 1 mps 719 mmHg 81%
    22:00 +4°C° 0 mm 1 mps 719 mmHg 83%
    23:00 +3°C° 0 mm 1 mps 719 mmHg 83%
    Show more